コプフ彗星

22P/Kopff (2009)

English version
Home page
Updated on January 1, 2010

---------------------------------------------------------------------

・ プロフィール

・ 写真集

・ 軌道要素

The following orbital elements are taken from MPC 56803:

Epoch 2009 May 9.0 TT = JDT 2454960.5
T 2009 May 25.4020 TT                                   MPC
q   1.577587             (2000.0)            P               Q
n   0.1529943      Peri.  162.8161      +0.2379474      +0.9687039
a   3.462203       Node   120.8985      -0.9005287      +0.2472897
e   0.544340       Incl.    4.7239      -0.3639081      +0.0214590
P   6.44
From 723 observations 1990-2003, mean residual 0".9.  Nongravitational
     parameters A1 = +0.04, A2 = -0.1073.

・ 星図

・ 光度変化

        m1 =  5.3 + 5 logΔ + 21.0 log r  [    ,-455]  (              〜2008年 2月25日)
        m1 = 25.5 + 5 logΔ - 20   log r  [-455,-317]  (2008年 2月25日〜2008年 7月12日)
        m1 =  5.3 + 5 logΔ + 21.0 log r  [-317,    ]  (2008年 7月12日〜              )

        ※ 灰色の曲線は、m1 = 5.3 + 5 logΔ + 21.0 log r の光度曲線です。

---------------------------------------------------------------------

軌道要素はMPCのEphemerides and Orbital Elementsに掲載されたものです。
星図は StellaNavigator Ver.2.0 for Windows (アストロアーツ 編著 / アスキー出版局刊) で作成したものです。
光度グラフはComet for Windowsで作成したものです。

---------------------------------------------------------------------

Copyright(C) Seiichi Yoshida (comet@aerith.net). All rights reserved.